COSMOS 1275 DEB, 12966

Orbit data source: Space-Track

COSMOS 1275 DEB, 12966 is space debris in LEO originally from a launch on Thu, 04 Jun 1981 UTC launched from the Plesetsk Missile And Space Complex (PKMTR). Debris objects in space refer to the collection of defunct objects orbiting the Earth. Examples of debris include non-operational satellites, rocket bodies, and fragments generated from explosions, collisions, or faulty payload assembly.

Loading next visibility...
Identifier
12966, 1981-053EM
Orbit
LEO
Country
Flag of CISCIS
Related business
Manufacturer
Unknown
Mission
Spacecraft
Bus & Motor
Unknown
Mass
Unknown
Launch date (UTC)
1981-06-04 (45 years ago)
Launch vehicle
Unknown
Launch site
Plesetsk Missile And Space Complex (PKMTR)
Object type
Payload
Rocket body
Debris
Shape & HBR
Unknown shape, 0.1 m
Radar Cross Section
Small (<0.1 m²)

Expand to show TLE details & history
Last TLE update: 9 hours ago

TLE from 9 hours ago
0 COSMOS 1275 DEB
1 12966U 81053EM  26095.59359422  .00002605  00000-0  13993-2 0  9992
2 12966  82.9396 314.4059 0032190 128.9710 294.3205 14.12331357255054
Epoch: 2026-04-05T14:14Z
TLE epoch observation values (Epoch: 2026-04-05T14:14:46.540Z)
Latitude
62.20788°
Longitude
-79.66688°
Altitude
852.557 km
Speed
7.437 km/s
True Right ascension
21h 51m 41s
True Declination
62° 04' 03"
Sunlit
Object was in daylight at epoch
Visualization orbit readout
Latitude
Unknown
Longitude
Unknown
Altitude
Unknown
Speed
Unknown
Apparent Right ascension
Unknown
Apparent Declination
Unknown
Sunlit
N/A
Visualization observer readout
Local Sidereal Time
04:55:36
Azimuth
Unknown
Elevation
Unknown
Doppler factor
Unknown
Orbital elements
Apogee altitude
871.765 km
Perigee altitude
825.24 km
Semi-major axis
7,226.639 km
Eccentricity
0.00322
Inclination
82.9396°
RAAN
314.4059°
Arg. of periapsis
128.971°
True anomaly
293.98381°
Mean anomaly
294.3205°
Eccentric anomaly
294.15221°
Mean motion
3.53296 °/min
Orbital period
101.9 mins
BSTAR
0.0013993
Loading maneuver chart data...
Computing Atmospheric mass density...

Documentation

Showing up to 5 results
|